Location: Branche des Alpilles
(43.6087°N, 4.6976°E)
Time: 16:35:41
(UTC+00:00)

Cosmos 2369 Rocket - Visible Passes

Search period start: 12 April 2021 00:00
Search period end: 22 April 2021 00:00
Orbit: 829 x 852 km, 71.0° (Epoch: 11 April)

Date Brightness Start Highest point End Pass type
(mag) Time Alt. Az. Time Alt. Az. Time Alt. Az.
12 Apr 4.2 04:09:09 10° SSE 04:13:49 28° ESE 04:18:29 10° NE visible
13 Apr 4.3 03:53:54 10° SSE 03:58:27 26° ESE 04:03:02 10° NE visible
14 Apr 4.3 03:38:39 10° SSE 03:43:06 25° ESE 03:47:34 10° NE visible
15 Apr 4.3 03:23:26 10° SSE 03:27:45 23° ESE 03:32:06 10° NE visible
16 Apr 4.3 03:08:13 10° SSE 03:12:25 22° E 03:16:36 10° NE visible
17 Apr 4.4 02:53:01 10° SSE 02:57:04 21° E 03:01:08 10° NE visible
18 Apr 4.4 02:37:50 10° SE 02:41:43 20° E 02:45:38 10° NE visible
18 Apr 2.3 04:19:40 10° SW 04:25:11 62° WNW 04:30:46 10° NNE visible
19 Apr 4.4 02:22:39 10° SE 02:26:23 18° E 02:30:07 10° ENE visible
19 Apr 2.3 04:04:16 10° SW 04:09:48 65° WNW 04:15:24 10° NNE visible
20 Apr 4.4 02:07:30 10° SE 02:11:02 17° E 02:14:35 10° ENE visible
20 Apr 2.2 03:48:56 10° SSW 03:54:25 69° WNW 04:00:02 10° NNE visible
21 Apr 4.5 01:52:30 10° SE 01:55:42 16° E 01:59:02 10° ENE visible
21 Apr 2.2 03:34:19 15° SSW 03:39:01 73° WNW 03:44:40 10° NNE visible
